Total_Precipitation_Accumulation
0.60 0.47 0.53 0.63 0.66 0.76 1.11 1.08 1.08 0.77 0.68 0.76 0.80 0.84 0.84 0.78 0.77 0.76 0.78 0.81 0.86 0.91 0.93 0.98 1.04 1.11 1.20 1.26 1.27 1.27 1.26 1.22 1.24 1.26 1.35 1.45 1.45 1.52 1.62 1.68 1.81 1.81 1.69 1.60
0.57 0.39 0.43 0.54 0.54 0.58 0.72 0.77 0.81 0.64 0.70 0.71 0.71 0.66 0.65 0.64 0.64 0.66 0.72 0.78 0.80 0.81 0.83 0.82 0.86 0.93 1.00 1.10 1.16 1.18 1.16 1.17 1.16 1.16 1.19 1.27 1.27 1.29 1.37 1.47 1.59 1.69 1.71 1.66
0.67 0.41 0.54 0.71 0.67 0.69 0.74 0.78 0.81 0.92 0.87 0.65 0.61 0.62 0.65 0.63 0.58 0.60 0.63 0.67 0.69 0.71 0.75 0.76 0.77 0.79 0.86 0.94 1.00 1.05 1.08 1.09 1.13 1.17 1.18 1.21 1.21 1.21 1.29 1.39 1.50 1.59 1.65 1.67
0.81 0.55 0.74 0.71 0.53 0.58 0.65 0.70 0.71 0.78 0.73 0.65 0.66 0.65 0.63 0.60 0.59 0.56 0.57 0.63 0.67 0.67 0.67 0.69 0.69 0.68 0.71 0.77 0.85 0.91 0.96 1.03 1.05 1.11 1.13 1.11 1.14 1.17 1.24 1.31 1.40 1.50 1.57 1.54
0.98 0.69 0.51 0.41 0.39 0.59 0.68 0.74 0.70 0.68 0.64 0.60 0.52 0.47 0.50 0.50 0.55 0.60 0.61 0.63 0.65 0.65 0.65 0.62 0.60 0.60 0.63 0.70 0.75 0.80 0.89 1.01 1.06 1.11 1.13 1.13 1.18 1.19 1.22 1.29 1.35 1.34 1.38 1.41
1.02 0.84 0.58 0.48 0.32 0.36 0.53 0.78 0.55 0.55 0.59 0.59 0.52 0.62 0.63 0.56 0.55 0.56 0.54 0.55 0.58 0.57 0.55 0.57 0.60 0.61 0.65 0.72 0.75 0.82 0.91 1.01 1.06 1.11 1.20 1.22 1.21 1.21 1.18 1.22 1.29 1.26 1.22 1.20
0.83 0.81 0.52 0.41 0.26 0.24 0.69 0.95 0.57 0.56 0.60 0.59 0.66 0.77 0.70 0.62 0.59 0.57 0.57 0.55 0.54 0.52 0.54 0.62 0.68 0.69 0.71 0.76 0.84 0.91 0.96 1.01 1.05 1.04 1.11 1.16 1.14 1.13 1.15 1.14 1.13 1.09 1.05 1.03
0.59 0.81 0.65 0.39 0.32 0.62 0.84 0.56 0.49 0.49 0.52 0.56 0.60 0.57 0.58 0.60 0.59 0.55 0.58 0.54 0.51 0.51 0.54 0.56 0.62 0.69 0.73 0.78 0.82 0.83 0.87 0.96 1.05 1.05 1.05 1.09 1.11 1.11 1.14 1.11 1.06 1.00 0.94 0.92
0.64 0.74 0.67 0.55 0.59 0.63 0.55 0.48 0.44 0.47 0.49 0.49 0.52 0.52 0.54 0.56 0.53 0.51 0.53 0.53 0.50 0.50 0.49 0.47 0.50 0.58 0.70 0.77 0.79 0.81 0.83 0.90 0.99 1.01 1.04 1.09 1.09 1.10 1.09 1.06 1.00 0.94 0.88 0.84
0.49 0.48 0.45 0.44 0.41 0.42 0.43 0.46 0.42 0.42 0.41 0.40 0.45 0.47 0.48 0.48 0.48 0.48 0.47 0.50 0.51 0.48 0.45 0.47 0.48 0.49 0.58 0.66 0.71 0.76 0.81 0.84 0.89 0.97 1.00 1.01 1.01 1.05 1.09 1.11 1.06 0.96 0.90 0.86
0.44 0.38 0.35 0.35 0.35 0.36 0.34 0.30 0.27 0.26 0.28 0.34 0.40 0.43 0.46 0.48 0.50 0.51 0.52 0.51 0.53 0.51 0.47 0.48 0.46 0.47 0.49 0.52 0.59 0.67 0.74 0.78 0.80 0.85 0.93 0.95 0.95 1.02 1.09 1.11 1.17 1.18 1.09 1.00
0.57 0.42 0.47 0.43 0.32 0.26 0.25 0.24 0.23 0.22 0.22 0.25 0.32 0.37 0.36 0.40 0.45 0.51 0.53 0.51 0.50 0.47 0.45 0.47 0.46 0.48 0.49 0.51 0.55 0.60 0.66 0.71 0.75 0.79 0.83 0.86 0.88 0.92 1.01 1.05 1.11 1.13 1.15 1.16
0.49 0.35 0.33 0.30 0.22 0.20 0.21 0.21 0.21 0.23 0.27 0.28 0.27 0.30 0.34 0.37 0.38 0.41 0.44 0.45 0.49 0.49 0.48 0.45 0.43 0.46 0.50 0.52 0.53 0.55 0.61 0.67 0.70 0.73 0.78 0.82 0.84 0.86 0.90 0.91 0.91 0.95 1.04 1.12
0.33 0.30 0.28 0.22 0.22 0.20 0.20 0.21 0.21 0.22 0.23 0.23 0.23 0.25 0.30 0.32 0.31 0.33 0.42 0.48 0.49 0.47 0.45 0.44 0.42 0.43 0.46 0.50 0.51 0.49 0.51 0.59 0.65 0.66 0.70 0.75 0.79 0.82 0.86 0.85 0.83 0.84 0.91 1.01
0.27 0.29 0.32 0.26 0.21 0.20 0.20 0.21 0.23 0.21 0.19 0.18 0.19 0.22 0.27 0.31 0.34 0.37 0.41 0.43 0.41 0.39 0.40 0.39 0.41 0.44 0.45 0.47 0.48 0.47 0.46 0.51 0.57 0.61 0.64 0.68 0.71 0.75 0.79 0.79 0.79 0.78 0.75 0.84
0.30 0.27 0.24 0.24 0.25 0.25 0.26 0.25 0.24 0.22 0.22 0.23 0.24 0.26 0.29 0.32 0.35 0.37 0.37 0.37 0.39 0.43 0.43 0.40 0.41 0.44 0.42 0.42 0.44 0.44 0.44 0.52 0.56 0.57 0.57 0.60 0.62 0.66 0.70 0.72 0.73 0.73 0.73 0.79
0.38 0.35 0.31 0.32 0.31 0.31 0.29 0.28 0.29 0.28 0.26 0.26 0.28 0.28 0.28 0.28 0.29 0.32 0.36 0.39 0.43 0.47 0.47 0.47 0.49 0.45 0.42 0.40 0.42 0.44 0.45 0.47 0.52 0.51 0.50 0.53 0.57 0.60 0.64 0.68 0.68 0.68 0.72 0.81
0.41 0.41 0.41 0.43 0.41 0.35 0.30 0.27 0.29 0.30 0.31 0.31 0.29 0.27 0.28 0.31 0.33 0.36 0.39 0.40 0.39 0.40 0.42 0.46 0.49 0.46 0.40 0.39 0.42 0.43 0.45 0.47 0.48 0.48 0.49 0.52 0.58 0.60 0.64 0.66 0.63 0.63 0.63 0.68
0.35 0.35 0.35 0.35 0.35 0.34 0.32 0.32 0.32 0.32 0.32 0.31 0.31 0.30 0.31 0.33 0.34 0.36 0.35 0.35 0.36 0.39 0.42 0.43 0.47 0.40 0.35 0.37 0.43 0.43 0.44 0.46 0.47 0.48 0.51 0.58 0.61 0.57 0.59 0.60 0.60 0.59 0.60 0.61
0.30 0.30 0.30 0.30 0.29 0.32 0.34 0.34 0.32 0.32 0.33 0.34 0.33 0.32 0.30 0.30 0.31 0.31 0.30 0.32 0.37 0.42 0.43 0.44 0.41 0.36 0.37 0.39 0.45 0.42 0.43 0.45 0.47 0.48 0.51 0.54 0.56 0.56 0.57 0.58 0.59 0.58 0.59 0.60
0.29 0.30 0.31 0.32 0.32 0.34 0.37 0.38 0.38 0.38 0.38 0.36 0.36 0.36 0.34 0.31 0.30 0.29 0.29 0.31 0.33 0.34 0.36 0.39 0.37 0.39 0.43 0.49 0.50 0.44 0.44 0.47 0.49 0.51 0.52 0.53 0.55 0.56 0.55 0.56 0.57 0.58 0.59 0.60
0.31 0.32 0.33 0.34 0.34 0.35 0.36 0.38 0.39 0.38 0.36 0.35 0.34 0.33 0.32 0.31 0.29 0.28 0.28 0.33 0.35 0.37 0.36 0.34 0.37 0.47 0.55 0.58 0.50 0.46 0.47 0.50 0.52 0.52 0.53 0.54 0.55 0.56 0.54 0.54 0.56 0.55 0.56 0.58
0.31 0.33 0.34 0.36 0.38 0.36 0.34 0.34 0.35 0.35 0.34 0.34 0.34 0.34 0.34 0.34 0.32 0.33 0.35 0.32 0.32 0.36 0.36 0.36 0.44 0.55 0.59 0.53 0.46 0.46 0.48 0.50 0.53 0.54 0.54 0.54 0.55 0.57 0.58 0.57 0.55 0.55 0.56 0.56
0.27 0.29 0.32 0.33 0.33 0.31 0.32 0.33 0.32 0.33 0.33 0.32 0.32 0.33 0.34 0.33 0.29 0.29 0.33 0.33 0.33 0.34 0.33 0.37 0.44 0.49 0.51 0.46 0.45 0.48 0.50 0.51 0.53 0.54 0.54 0.54 0.55 0.57 0.58 0.57 0.56 0.52 0.52 0.53
0.28 0.29 0.30 0.31 0.31 0.32 0.34 0.32 0.29 0.29 0.29 0.28 0.28 0.28 0.29 0.31 0.34 0.31 0.29 0.29 0.31 0.33 0.32 0.33 0.37 0.40 0.40 0.42 0.46 0.50 0.53 0.55 0.58 0.60 0.58 0.58 0.57 0.57 0.57 0.57 0.57 0.55 0.53 0.51
0.27 0.28 0.29 0.31 0.34 0.35 0.35 0.32 0.31 0.31 0.31 0.31 0.29 0.28 0.29 0.30 0.30 0.29 0.28 0.28 0.29 0.32 0.32 0.32 0.34 0.36 0.37 0.40 0.44 0.48 0.51 0.53 0.54 0.55 0.54 0.55 0.56 0.57 0.56 0.55 0.53 0.54 0.52 0.50
0.22 0.23 0.24 0.25 0.27 0.30 0.33 0.33 0.35 0.36 0.35 0.36 0.36 0.32 0.31 0.31 0.31 0.30 0.30 0.30 0.31 0.32 0.32 0.33 0.35 0.37 0.39 0.41 0.43 0.44 0.46 0.49 0.51 0.52 0.54 0.55 0.56 0.56 0.54 0.53 0.53 0.51 0.50 0.49